Home   Weather   Baden-Baden   Past weeks

Flag for Germany Past Weather in Baden-Baden, Baden-Württemberg, Germany — Yesterday and Last 2 Weeks

50 °F

Light rain. Fog.

Feels Like: 50 °F
Forecast: 50 / 58 °F
Wind: No wind

Location: Karlsruhe - Baden Wurttemberg

Current Time: Oct 24, 2016 at 9:12:51 AM

Latest Report: Oct 24, 2016 at 8:50 AM

Visibility: 2 mi

Pressure: 29.89 "Hg

Humidity: 100%

Dew Point: 50 °F

Location of Baden-BadenLocation

Past Weather in Baden-Baden — Graph


Baden-Baden Temperature Yesterday

Maximum temperature yesterday: 48 °F (at 3:20 PM)
Minimum temperature yesterday: 32 °F (at 4:50 AM)
Average temperature yesterday: 42 °F

High & Low Weather Summary for the Past Weeks

High63 °F (Oct 15, 4:20 PM)100% (Oct 9, 7:50 AM)30.27 "Hg (Oct 9, 7:50 AM)
Low32 °F (Oct 23, 4:50 AM)51% (Oct 12, 4:20 PM)29.62 "Hg (Oct 14, 6:50 PM)
Average48 °F87%30.02 "Hg
* Reported Oct 9 7:20 AM — Oct 24 7:50 AM, Baden-Baden, Weather by CustomWeather, © 2016

Note: Actual official high and low records may vary slightly from our data, if they occured in-between our weather recording intervals... More about our weather records


Baden-Baden Weather History for the Previous 24 Hours

Scroll right to see more
Time TempWeatherWind HumidityBarometerVisibility
7:50 AM
Mon, Oct 24
50 °FFog.1 mph94%29.89 "Hg3 mi
7:20 AM48 °FFog.1 mph100%29.89 "Hg3 mi
6:50 AM48 °FRain. Fog.2 mph100%29.89 "Hg2 mi
6:20 AM48 °FFog.2 mph100%29.89 "Hg2 mi
5:50 AM48 °FFog.3 mph100%29.89 "Hg2 mi
5:20 AM48 °FLight rain. Fog.2 mph100%29.89 "Hg2 mi
4:50 AM48 °FLight rain. Fog.2 mph100%29.92 "Hg3 mi
11:50 PM
Sun, Oct 23
46 °FRain. Fog.3 mph100%29.89 "Hg3 mi
11:20 PM46 °FRain. Fog.3 mph100%29.86 "Hg3 mi
10:50 PM46 °FRain. Fog.2 mph100%29.86 "Hg3 mi
10:20 PM46 °FRain. Passing clouds.1 mph100%29.86 "Hg4 mi
9:50 PM46 °FRain. Passing clouds.2 mph100%29.86 "Hg4 mi
9:20 PM46 °FLight rain. Partly cloudy.2 mph100%29.86 "Hg4 mi
8:50 PM46 °FPassing clouds.2 mph100%29.86 "Hg4 mi
8:20 PM46 °FPassing clouds.1 mph93%29.86 "Hg4 mi
7:50 PM46 °FLight rain. Partly cloudy.1 mph93%29.86 "Hg4 mi
7:20 PM46 °FLight rain. Partly cloudy.3 mph93%29.86 "Hg4 mi
6:50 PM46 °FLight rain. Partly cloudy.3 mph93%29.86 "Hg5 mi
6:20 PM46 °FBroken clouds.3 mph93%29.86 "HgN/A
5:50 PM48 °FBroken clouds.2 mph87%29.86 "HgN/A
5:20 PM48 °FBroken clouds.No wind82%29.86 "HgN/A
4:50 PM48 °FPartly sunny.1 mph82%29.86 "HgN/A
4:20 PM48 °FPartly sunny.2 mph82%29.86 "HgN/A
3:50 PM48 °FBroken clouds.2 mph82%29.86 "HgN/A
3:20 PM48 °FPartly sunny.1 mph82%29.86 "HgN/A
2:50 PM46 °FPartly sunny.2 mph87%29.89 "HgN/A
2:20 PM46 °FBroken clouds.3 mph87%29.89 "HgN/A
1:50 PM46 °FBroken clouds.5 mph87%29.89 "Hg4 mi
12:50 PM46 °FFog.2 mph87%29.89 "Hg3 mi
12:20 PM45 °FFog.5 mph93%29.89 "Hg2 mi
11:50 AM43 °FFog.5 mph100%29.89 "Hg1 mi
11:20 AM43 °FFog.7 mph100%29.89 "Hg1 mi
10:50 AM41 °FFog.3 mph100%29.89 "Hg1 mi
10:20 AM41 °FFog.5 mph100%29.89 "Hg1 mi
9:50 AM39 °FFog.3 mph100%29.89 "Hg1 mi
9:20 AM37 °FFog.5 mph100%29.89 "Hg1 mi
Weather by CustomWeather, © 2016

See weather overviewHow to use our weather pages